Osage River (Missouri), Tuscumbia (06926080)

StateMissouriLatestUnknown (25100 cfs)
RiverOsage RiverRatingObservedEstimated
Updated2026-05-10 12:00 (37 minutes ago)Flood - The river is flooding. Obstacles can be treacherous or deadly. The river should be avoided at this stage for casual trips and definitely for the inexperienced. Trips should be attempted only with protective gear and equipment.Flood(none)(none)
Discharge25100 cfs (median: 28000 cfs)High - The river is high and potentially dangerous, especially for the young and / or inexperienced. Normal stream obstacles are sometimes difficult to navigate. Extended distances can be attempted, but canoe travel may not be advisable.High(none)(none)
Height12.38 feetGood - Conditions are ideal for a canoe or kayak. Boats typically will drag on fewer than one-quarter of riffles, if at all, and portages are unnecessary or rare. Normal float lengths can be attempted without a problem.Good(none)(none)
TrendFalling (falling over 24 hours)Low - River is low but can still be floated. Some riffles are okay but most come with significant dragging and might need a portage. Float lengths should be reduced to accommodate low flow, dragging, and portages.Low(none)(none)
USGSExternal icon USGS Site (External icon Duck Duck Go Maps)Poor - River is too low to float comfortably. Most or all riffles will drag or must be portaged and some obstacles (such as slick shelf rock) cause undue problems. Avoid the river at this stage for casual paddling trips.Poor(none)(none)

Trending Data

Plot Image

Trips for Osage River (Missouri), Tuscumbia (06926080)

DateStartEndDistanceConditionDischargeHeightFishingDetails

A total of 0 rows are displayed.

Condition Descriptions

Fishing Conditions

Fish Species

Notes

Classic Trip List

The classic River Trips application is still available for use. It is updated with the new system using a data retrofit. It is no longer maintained. The original River Trips application is no longer updated (as of 1 Dec 2016) but can be checked for errors or for the condition of the data before it was converted to the new system.

Gauge Data Table

ObservationHeightDischargeMaximum
Discharge
Minimum
Discharge
Mean
Discharge
P05P10P20P25P50
(Median)
P75P80P90P95
2026-05-10 12:00 12.38 25100 49900 (2017) 1210 (2023) 25100 1720 6840 8420 28000 40600 42700 49300
2026-05-10 11:00 12.61 25700 49900 (2017) 1210 (2023) 25100 1720 6840 8420 28000 40600 42700 49300
2026-05-10 10:00 13.03 26900 49900 (2017) 1210 (2023) 25100 1720 6840 8420 28000 40600 42700 49300
2026-05-10 09:00 13.17 27300 49900 (2017) 1210 (2023) 25100 1720 6840 8420 28000 40600 42700 49300
2026-05-10 08:00 13.41 28000 49900 (2017) 1210 (2023) 25100 1720 6840 8420 28000 40600 42700 49300
2026-05-10 07:00 13.67 28800 49900 (2017) 1210 (2023) 25100 1720 6840 8420 28000 40600 42700 49300
2026-05-10 06:00 13.99 29800 49900 (2017) 1210 (2023) 25100 1720 6840 8420 28000 40600 42700 49300
2026-05-10 05:00 14.34 30800 49900 (2017) 1210 (2023) 25100 1720 6840 8420 28000 40600 42700 49300
2026-05-10 04:00 14.55 31400 49900 (2017) 1210 (2023) 25100 1720 6840 8420 28000 40600 42700 49300
2026-05-10 03:00 14.58 31500 49900 (2017) 1210 (2023) 25100 1720 6840 8420 28000 40600 42700 49300
2026-05-10 02:00 14.41 31000 49900 (2017) 1210 (2023) 25100 1720 6840 8420 28000 40600 42700 49300
2026-05-10 01:00 14.53 31400 49900 (2017) 1210 (2023) 25100 1720 6840 8420 28000 40600 42700 49300
2026-05-10 00:00 14.28 30600 49900 (2017) 1210 (2023) 25100 1720 6840 8420 28000 40600 42700 49300
2026-05-09 23:00 13.90 29500 49900 (2017) 1210 (2023) 25100 1720 6840 8420 28000 40600 42700 49300
2026-05-09 22:00 13.46 28200 48800 (2017) 1920 (2023) 26000 1930 2760 4810 30200 37400 44700 48700
2026-05-09 21:00 12.92 26600 48800 (2017) 1920 (2023) 26000 1930 2760 4810 30200 37400 44700 48700
2026-05-09 20:00 12.42 25200 48800 (2017) 1920 (2023) 26000 1930 2760 4810 30200 37400 44700 48700
2026-05-09 19:00 12.26 24700 48800 (2017) 1920 (2023) 26000 1930 2760 4810 30200 37400 44700 48700
2026-05-09 18:00 12.47 25300 48800 (2017) 1920 (2023) 26000 1930 2760 4810 30200 37400 44700 48700
2026-05-09 17:00 12.50 25400 48800 (2017) 1920 (2023) 26000 1930 2760 4810 30200 37400 44700 48700
2026-05-09 16:00 12.49 25400 48800 (2017) 1920 (2023) 26000 1930 2760 4810 30200 37400 44700 48700
2026-05-09 15:00 12.52 25500 48800 (2017) 1920 (2023) 26000 1930 2760 4810 30200 37400 44700 48700
2026-05-09 14:00 12.56 25600 48800 (2017) 1920 (2023) 26000 1930 2760 4810 30200 37400 44700 48700
2026-05-09 13:00 12.66 25900 48800 (2017) 1920 (2023) 26000 1930 2760 4810 30200 37400 44700 48700
2026-05-09 12:00 12.83 26300 48800 (2017) 1920 (2023) 26000 1930 2760 4810 30200 37400 44700 48700
2026-05-09 11:00 13.24 27500 48800 (2017) 1920 (2023) 26000 1930 2760 4810 30200 37400 44700 48700
2026-05-09 10:00 13.45 28200 48800 (2017) 1920 (2023) 26000 1930 2760 4810 30200 37400 44700 48700
2026-05-09 09:00 13.84 29300 48800 (2017) 1920 (2023) 26000 1930 2760 4810 30200 37400 44700 48700
2026-05-09 08:00 14.30 30700 48800 (2017) 1920 (2023) 26000 1930 2760 4810 30200 37400 44700 48700
2026-05-09 07:00 14.41 31000 48800 (2017) 1920 (2023) 26000 1930 2760 4810 30200 37400 44700 48700
2026-05-09 06:00 14.31 30700 48800 (2017) 1920 (2023) 26000 1930 2760 4810 30200 37400 44700 48700
2026-05-09 05:00 14.65 31800 48800 (2017) 1920 (2023) 26000 1930 2760 4810 30200 37400 44700 48700
2026-05-09 04:00 15.02 32900 48800 (2017) 1920 (2023) 26000 1930 2760 4810 30200 37400 44700 48700
2026-05-09 03:00 15.62 34800 48800 (2017) 1920 (2023) 26000 1930 2760 4810 30200 37400 44700 48700
2026-05-09 02:00 16.12 36300 48800 (2017) 1920 (2023) 26000 1930 2760 4810 30200 37400 44700 48700
2026-05-09 01:00 16.36 37100 48800 (2017) 1920 (2023) 26000 1930 2760 4810 30200 37400 44700 48700
2026-05-09 00:00 16.37 37100 48800 (2017) 1920 (2023) 26000 1930 2760 4810 30200 37400 44700 48700
2026-05-08 23:00 16.37 37100 48800 (2017) 1920 (2023) 26000 1930 2760 4810 30200 37400 44700 48700
2026-05-08 22:00 16.35 37100 51700 (2024) 1810 (2018) 25500 2050 4560 5400 30400 38000 38400 50400
2026-05-08 21:00 16.35 37100 51700 (2024) 1810 (2018) 25500 2050 4560 5400 30400 38000 38400 50400
2026-05-08 20:00 16.33 37000 51700 (2024) 1810 (2018) 25500 2050 4560 5400 30400 38000 38400 50400
2026-05-08 19:00 16.25 36800 51700 (2024) 1810 (2018) 25500 2050 4560 5400 30400 38000 38400 50400
2026-05-08 18:00 16.21 36600 51700 (2024) 1810 (2018) 25500 2050 4560 5400 30400 38000 38400 50400
2026-05-08 17:00 16.20 36600 51700 (2024) 1810 (2018) 25500 2050 4560 5400 30400 38000 38400 50400
2026-05-08 16:00 16.20 36600 51700 (2024) 1810 (2018) 25500 2050 4560 5400 30400 38000 38400 50400
2026-05-08 15:00 16.17 36500 51700 (2024) 1810 (2018) 25500 2050 4560 5400 30400 38000 38400 50400
2026-05-08 14:00 16.17 36500 51700 (2024) 1810 (2018) 25500 2050 4560 5400 30400 38000 38400 50400
2026-05-08 13:00 16.14 36400 51700 (2024) 1810 (2018) 25500 2050 4560 5400 30400 38000 38400 50400
2026-05-08 12:00 16.12 36300 51700 (2024) 1810 (2018) 25500 2050 4560 5400 30400 38000 38400 50400
2026-05-08 11:00 16.09 36200 51700 (2024) 1810 (2018) 25500 2050 4560 5400 30400 38000 38400 50400
2026-05-08 10:00 16.06 36100 51700 (2024) 1810 (2018) 25500 2050 4560 5400 30400 38000 38400 50400
2026-05-08 09:00 16.04 36100 51700 (2024) 1810 (2018) 25500 2050 4560 5400 30400 38000 38400 50400
2026-05-08 08:00 16.02 36000 51700 (2024) 1810 (2018) 25500 2050 4560 5400 30400 38000 38400 50400
2026-05-08 07:00 15.99 35900 51700 (2024) 1810 (2018) 25500 2050 4560 5400 30400 38000 38400 50400
2026-05-08 06:00 15.96 35800 51700 (2024) 1810 (2018) 25500 2050 4560 5400 30400 38000 38400 50400
2026-05-08 05:00 15.91 35700 51700 (2024) 1810 (2018) 25500 2050 4560 5400 30400 38000 38400 50400
2026-05-08 04:00 15.87 35500 51700 (2024) 1810 (2018) 25500 2050 4560 5400 30400 38000 38400 50400
2026-05-08 03:00 15.82 35400 51700 (2024) 1810 (2018) 25500 2050 4560 5400 30400 38000 38400 50400
2026-05-08 02:00 15.78 35300 51700 (2024) 1810 (2018) 25500 2050 4560 5400 30400 38000 38400 50400
2026-05-08 01:00 15.76 35200 51700 (2024) 1810 (2018) 25500 2050 4560 5400 30400 38000 38400 50400
2026-05-08 00:00 15.71 35000 51700 (2024) 1810 (2018) 25500 2050 4560 5400 30400 38000 38400 50400
2026-05-07 23:00 15.67 34900 51700 (2024) 1810 (2018) 25500 2050 4560 5400 30400 38000 38400 50400
2026-05-07 22:00 15.84 35400 47400 (2024) 1120 (2023) 26100 1190 3460 8020 30900 37200 37900 46500
2026-05-07 21:00 15.98 35900 47400 (2024) 1120 (2023) 26100 1190 3460 8020 30900 37200 37900 46500
2026-05-07 20:00 15.94 35800 47400 (2024) 1120 (2023) 26100 1190 3460 8020 30900 37200 37900 46500
2026-05-07 19:00 15.90 35600 47400 (2024) 1120 (2023) 26100 1190 3460 8020 30900 37200 37900 46500
2026-05-07 18:00 15.84 35400 47400 (2024) 1120 (2023) 26100 1190 3460 8020 30900 37200 37900 46500
2026-05-07 17:00 15.79 35300 47400 (2024) 1120 (2023) 26100 1190 3460 8020 30900 37200 37900 46500
2026-05-07 16:00 15.71 35000 47400 (2024) 1120 (2023) 26100 1190 3460 8020 30900 37200 37900 46500
2026-05-07 15:00 15.65 34900 47400 (2024) 1120 (2023) 26100 1190 3460 8020 30900 37200 37900 46500
2026-05-07 14:00 15.56 34600 47400 (2024) 1120 (2023) 26100 1190 3460 8020 30900 37200 37900 46500
2026-05-07 13:00 15.55 34500 47400 (2024) 1120 (2023) 26100 1190 3460 8020 30900 37200 37900 46500
2026-05-07 12:00 15.70 35000 47400 (2024) 1120 (2023) 26100 1190 3460 8020 30900 37200 37900 46500
2026-05-07 11:00 16.04 36100 47400 (2024) 1120 (2023) 26100 1190 3460 8020 30900 37200 37900 46500
2026-05-07 10:00 16.07 36200 47400 (2024) 1120 (2023) 26100 1190 3460 8020 30900 37200 37900 46500
2026-05-07 09:00 16.08 36200 47400 (2024) 1120 (2023) 26100 1190 3460 8020 30900 37200 37900 46500
2026-05-07 08:00 16.09 36200 47400 (2024) 1120 (2023) 26100 1190 3460 8020 30900 37200 37900 46500
2026-05-07 07:00 16.08 36200 47400 (2024) 1120 (2023) 26100 1190 3460 8020 30900 37200 37900 46500
2026-05-07 06:00 16.19 36600 47400 (2024) 1120 (2023) 26100 1190 3460 8020 30900 37200 37900 46500
2026-05-07 05:00 16.18 36500 47400 (2024) 1120 (2023) 26100 1190 3460 8020 30900 37200 37900 46500
2026-05-07 04:00 16.18 36500 47400 (2024) 1120 (2023) 26100 1190 3460 8020 30900 37200 37900 46500
2026-05-07 03:00 16.16 36500 47400 (2024) 1120 (2023) 26100 1190 3460 8020 30900 37200 37900 46500
2026-05-07 02:00 16.16 36500 47400 (2024) 1120 (2023) 26100 1190 3460 8020 30900 37200 37900 46500
2026-05-07 01:00 16.17 36500 47400 (2024) 1120 (2023) 26100 1190 3460 8020 30900 37200 37900 46500
2026-05-07 00:00 16.16 36500 47400 (2024) 1120 (2023) 26100 1190 3460 8020 30900 37200 37900 46500
2026-05-06 23:00 16.13 36400 47400 (2024) 1120 (2023) 26100 1190 3460 8020 30900 37200 37900 46500

A total of 86 rows are displayed for years 2016 through 2025.